Location: *
(50.9167°S, 179.4000°W)
Time: 18:43:50
(UTC+00:00)

COSMOS 2428 - Pass Details

Date: 26 June 2024
Orbit: 843 x 857 km, 70.9° (Epoch: 18 July)

Event Time Altitude Azimuth Distance (km) Brightness Sun altitude
Exits shadow 17:47:00 - 194° (SSW) 2,642 5.0 -20.0°
Reaches altitude 10° 17:47:32 10° 190° (S) 2,523 4.9 -19.9°
Maximum altitude 17:51:03 16° 152° (SSE) 2,108 4.9 -19.4°
Drops below altitude 10° 17:54:33 10° 115° (ESE) 2,508 5.9 -18.8°
Sets 17:58:02 0° 93° (E) 3,435 7.3 -18.3°
